STARLINK-11173, 60192

Orbit data source: Space-Track

STARLINK-11173, 60192 is a payload satellite owned by SpaceX/Seattle (US) in LEO that was launched on Wed, 03 Jul 2024 UTC via an FALCON 9 launch vehicle from the Air Force Eastern Test Range (AFETR). Payload-class satellites include a variety of spacecraft equipped with specific instruments for various scientific and technological missions. These include communications satellites like Starlink; space stations such as the ISS; scientific satellites like the Hubble; Earth observation satellites from companies like Planet Labs, Umbra, and HawkEye 360; GPS; miniature CubeSats for education and research; and military/defense satellites.

Loading next visibility...
Identifier
60192, 2024-124K
Orbit
LEO
Country
Flag of USUS
Related business
Manufacturer
SpaceX/Seattle
Mission
Operational Commercial Communications
Bus & Motor
STARLINK V2MD, Unknown motor
Mass
960 kg wet, ~910 kg dry
Launch date (UTC)
2024-07-03 (2 years ago)
Launch vehicle
FALCON 9
Launch site
Air Force Eastern Test Range (AFETR)
Object type
Payload
Rocket body
Debris
Shape & HBR
Box + 2 Pan, 18.1 m
Radar Cross Section
36.964 m², Large (>1 m²)

Expand to show TLE details & history
Last TLE update: 1 day ago

TLE from 1 day ago
0 STARLINK-11173
1 60192U 24124K   26170.95239146  .00000065  00000-0  53902-5 0  9991
2 60192  53.1596  17.2800 0000988  76.3622 283.7506 15.69712752112592
Epoch: 2026-06-19T22:51Z
TLE epoch observation values (Epoch: 2026-06-19T22:51:26.622Z)
Latitude
Longitude
126.24509°
Altitude
360.476 km
Speed
7.694 km/s
True Right ascension
01h 09m 07s
True Declination
0° 00' 00"
Sunlit
Object was in daylight at epoch
Visualization orbit readout
Latitude
Unknown
Longitude
Unknown
Altitude
Unknown
Speed
Unknown
Apparent Right ascension
Unknown
Apparent Declination
Unknown
Sunlit
N/A
Visualization observer readout
Local Sidereal Time
10:18:35
Azimuth
Unknown
Elevation
Unknown
Doppler factor
Unknown
Orbital elements
Apogee altitude
360.645 km
Perigee altitude
359.314 km
Semi-major axis
6,738.117 km
Eccentricity
0.0001
Inclination
53.1596°
RAAN
17.28°
Arg. of periapsis
76.3622°
True anomaly
283.7396°
Mean anomaly
283.7506°
Eccentric anomaly
283.7451°
Mean motion
3.92406 °/min
Orbital period
91.74 mins
BSTAR
0.0000053902
Loading maneuver chart data...
Computing Atmospheric mass density...
Loading historical data...
Loading historical data...
Loading historical data...
Loading historical data...
Loading historical data...
Loading historical data...
Loading historical data...

Documentation

Showing up to 5 results
|